Haleyville, AL

10:52 AM CDT on June 23, 2017 (GMT -0500)
Haleyville

Weather History for K1M4 - April, 2013

Change the Weather History Date:

Friday, April 5, 2013

  Actual Average (KJFX) Record (KJFX)
Temperature  
Mean Temperature 52 °F -  
Max Temperature 63 °F 68 °F 90 °F (1967)
Min Temperature 39 °F 41 °F 28 °F (1966)
Degree Days  
Heating Degree Days 13    
Growing Degree Days 2 (Base 50)    
Moisture  
Dew Point 41 °F    
Average Humidity 82    
Maximum Humidity 100    
Minimum Humidity 33    
Precipitation  
Precipitation 0.00 in - - ()
Sea Level Pressure  
Sea Level Pressure 30.12 in    
Wind  
Wind Speed 5 mph (North)    
Max Wind Speed 12 mph    
Max Gust Speed 16 mph    
Visibility 7 miles    
Events Rain    
Averages and records for this station are not official NWS values.
T = Trace of Precipitation, MM = Missing Value Source: NWS Daily Summary

Daily Weather History Graph

Daily Weather History Graph

Search for Another Location

Airport or City:

Trip Planner

Search our weather history database for the weather conditions in past years. The results will help you decide how hot, cold, wet, or windy it might be!

Date:

Astronomy

Apr. 05, 2013 Rise Set
Actual Time 6:31 AM CDT 7:14 PM CDT
Civil Twilight 6:06 AM CDT 7:40 PM CDT
Nautical Twilight 5:36 AM CDT 8:10 PM CDT
Astronomical Twilight 5:05 AM CDT 8:40 PM CDT
Moon 3:26 AM CDT (4/5) 2:49 PM CDT (4/5)
Length of Visible Light 13h 33m
Length of Day
12h 42m
Waning Crescent, 23% of the Moon is Illuminated
Apr 5
Waning Crescent
Apr 10
New
Apr 18
First Quarter
Apr 25
Full
May 2
Last Quarter

Hourly Weather History & Observations

Time (CDT) Temp. Windchill Dew Point Humidity Pressure Visibility Wind Dir Wind Speed Gust Speed Precip Events Conditions
12:56 AM 41.9 °F 40.0 °F 41.9 °F 100% 30.05 in 5.0 mi NNE 3.5 mph - 0.00 in Rain Light Rain
1:20 AM 42.8 °F 40.1 °F 42.8 °F 100% 30.02 in 5.0 mi North 4.6 mph - 0.00 in Rain Light Rain
1:39 AM 42.8 °F 40.1 °F 42.8 °F 100% 30.03 in 5.0 mi North 4.6 mph - 0.00 in   Overcast
1:56 AM 41.9 °F 40.0 °F 41.9 °F 100% 30.06 in 5.0 mi North 3.5 mph - 0.00 in   Overcast
2:45 AM 42.8 °F 41.1 °F 42.8 °F 100% 30.04 in 5.0 mi North 3.5 mph - N/A   Overcast
2:56 AM 41.9 °F 40.0 °F 41.9 °F 100% 30.07 in 4.0 mi North 3.5 mph - N/A   Overcast
3:10 AM 42.8 °F 41.1 °F 42.8 °F 100% 30.04 in 4.0 mi North 3.5 mph - N/A   Overcast
3:56 AM 41.9 °F 39.0 °F 41.9 °F 100% 30.09 in 2.5 mi North 4.6 mph - 0.00 in   Overcast
4:42 AM 42.8 °F 39.3 °F 42.8 °F 100% 30.06 in 1.5 mi North 5.8 mph - 0.00 in Rain Light Rain
4:56 AM 41.9 °F 39.0 °F 41.9 °F 100% 30.09 in 2.0 mi North 4.6 mph - 0.00 in   Overcast
5:16 AM 42.8 °F 41.1 °F 42.8 °F 100% 30.06 in 3.0 mi North 3.5 mph - N/A   Overcast
5:56 AM 43.0 °F 39.5 °F 43.0 °F 100% 30.10 in 4.0 mi NNW 5.8 mph - N/A   Overcast
6:12 AM 42.8 °F 38.6 °F 42.8 °F 100% 30.08 in 4.0 mi NNW 6.9 mph - N/A   Overcast
6:56 AM 43.9 °F 39.9 °F 43.9 °F 100% 30.13 in 3.0 mi North 6.9 mph - N/A   Overcast
7:56 AM 45.0 °F 41.2 °F 45.0 °F 100% 30.14 in 6.0 mi North 6.9 mph - N/A   Overcast
8:12 AM 44.6 °F 40.2 °F 44.6 °F 100% 30.11 in 7.0 mi North 8.1 mph - N/A   Overcast
8:56 AM 45.9 °F 40.8 °F 45.0 °F 97% 30.15 in 10.0 mi North 10.4 mph - N/A   Overcast
9:56 AM 46.9 °F - 43.9 °F 89% 30.17 in 10.0 mi North 9.2 mph - N/A   Overcast
10:26 AM 48.2 °F - 44.6 °F 87% 30.15 in 10.0 mi NNE 8.1 mph 16.1 mph N/A   Overcast
10:56 AM 52.0 °F - 45.0 °F 77% 30.19 in 10.0 mi North 9.2 mph - N/A   Mostly Cloudy
11:25 AM 53.6 °F - 42.8 °F 67% 30.15 in 10.0 mi ENE 9.2 mph - N/A   Partly Cloudy
11:56 AM 54.0 °F - 41.9 °F 64% 30.18 in 10.0 mi North 4.6 mph - N/A   Partly Cloudy
12:56 PM 57.9 °F - 38.8 °F 49% 30.16 in 10.0 mi North 11.5 mph - N/A   Clear
1:56 PM 59.9 °F - 38.8 °F 46% 30.15 in 10.0 mi North 5.8 mph - N/A   Clear
2:56 PM 61.9 °F - 36.9 °F 39% 30.14 in 10.0 mi North 10.4 mph - N/A   Clear
3:56 PM 63.0 °F - 34.0 °F 34% 30.12 in 10.0 mi North 4.6 mph - N/A   Clear
4:56 PM 63.9 °F - 36.0 °F 36% 30.13 in 10.0 mi Variable 5.8 mph - N/A   Clear
5:56 PM 63.9 °F - 34.0 °F 33% 30.13 in 10.0 mi North 6.9 mph - N/A   Clear
6:56 PM 59.9 °F - 36.9 °F 42% 30.12 in 10.0 mi Calm Calm - N/A   Clear
7:56 PM 52.0 °F - 41.9 °F 69% 30.14 in 10.0 mi Calm Calm - N/A   Clear
8:56 PM 48.9 °F - 39.9 °F 71% 30.17 in 10.0 mi Calm Calm - N/A   Clear
9:56 PM 45.9 °F - 41.9 °F 86% 30.18 in 10.0 mi Calm Calm - N/A   Clear
10:56 PM 41.9 °F - 39.9 °F 93% 30.18 in 10.0 mi Calm Calm - N/A   Clear
11:56 PM 39.9 °F - 38.8 °F 96% 30.18 in 10.0 mi Calm Calm - N/A   Clear